Hatteras, NC

10:47 AM EST on December 08, 2019 (GMT -0500)
Mitchell

Weather History for KHSE - August, 2019

Change the Weather History Date:

Friday, August 9, 2019

  Actual Average Record
Temperature  
Mean Temperature 84 °F 79 °F  
Max Temperature 90 °F 85 °F 91 °F (1960)
Min Temperature 77 °F 73 °F 62 °F (1957)
Degree Days  
Heating Degree Days 0 0  
Month to date heating degree days 0 0  
Since 1 June heating degree days 0 3  
Since 1 July heating degree days 0 0  
Cooling Degree Days 18 14  
Month to date cooling degree days 145 126  
Year to date cooling degree days 1445 1014  
Since 1 June cooling degree days 1063 871  
Growing Degree Days 34 (Base 50)    
Moisture  
Dew Point 77 °F    
Average Humidity 83    
Maximum Humidity 100    
Minimum Humidity 57    
Precipitation  
Precipitation 0.00 in 0.21 in 3.70 in (1976)
Month to date precipitation 2.54 1.85  
Year to date precipitation 34.26 32.11  
Snow  
Snow 0.00 in - - ()
Month to date snowfall 0.0  
Since 1 July snowfall 0.0  
Snow Depth 0.00 in    
Sea Level Pressure  
Sea Level Pressure 29.85 in    
Wind  
Wind Speed 5 mph ()    
Max Wind Speed 13 mph    
Max Gust Speed 17 mph    
Visibility 7.8 miles    
Events      
T = Trace of Precipitation, MM = Missing Value Source: Averaged Metar Reports

Daily Weather History Graph

Daily Weather History Graph

Search for Another Location

Airport or City:

Astronomy

Aug. 09, 2019 Rise Set
Actual Time 6:17 AM EDT 7:58 PM EDT
Civil Twilight 5:50 AM EDT 8:25 PM EDT
Nautical Twilight 5:17 AM EDT 8:58 PM EDT
Astronomical Twilight 4:42 AM EDT 9:32 PM EDT
Moon 3:34 PM EDT (8/9) 1:14 AM EDT (8/9)
Length of Visible Light 14h 35m
Length of Day
13h 40m
Waxing Gibbous, 70% of the Moon is Illuminated
Aug 9
Waxing Gibbous
Aug 15
Full
Aug 23
Last Quarter
Aug 30
New
Sep 5
First Quarter

Hourly Weather History & Observations

Time (EDT) Temp. Heat Index Dew Point Humidity Pressure Visibility Wind Dir Wind Speed Gust Speed Precip Events Conditions
12:51 AM 81.0 °F 88.6 °F 78.1 °F 91% 29.84 in 10.0 mi West 4.6 mph - N/A   Clear
1:51 AM 80.1 °F 85.8 °F 77.0 °F 90% 29.84 in 8.0 mi West 3.5 mph - N/A   Clear
2:51 AM 79.0 °F - 77.0 °F 94% 29.83 in 4.0 mi Calm Calm - N/A   Clear
4:51 AM 79.0 °F - 78.1 °F 97% 29.83 in 8.0 mi WSW 4.6 mph - N/A   Clear
5:51 AM 79.0 °F - 77.0 °F 94% 29.84 in 7.0 mi West 3.5 mph - N/A   Clear
6:18 AM 78.1 °F - 77.0 °F 96% 29.84 in 1.8 mi WSW 3.5 mph - N/A   Clear
6:34 AM 78.1 °F - 77.0 °F 96% 29.85 in 2.0 mi WSW 3.5 mph - N/A   Clear
6:49 AM 78.8 °F - 78.8 °F 100% 29.85 in 4.0 mi WSW 3.5 mph - N/A   Clear
6:51 AM 79.0 °F - 78.1 °F 97% 29.85 in 4.0 mi Calm Calm - N/A   Clear
7:51 AM 81.0 °F 88.6 °F 78.1 °F 91% 29.86 in 6.0 mi SW 4.6 mph - N/A   Clear
8:51 AM 84.9 °F 96.6 °F 78.1 °F 80% 29.87 in 10.0 mi West 6.9 mph - N/A   Clear
9:51 AM 87.1 °F 98.8 °F 77.0 °F 72% 29.86 in 10.0 mi West 6.9 mph - N/A   Clear
10:51 AM 87.1 °F 98.8 °F 77.0 °F 72% 29.88 in 9.0 mi SW 6.9 mph - N/A   Clear
11:51 AM 89.1 °F 98.0 °F 73.9 °F 61% 29.87 in 10.0 mi West 5.8 mph - N/A   Clear
12:51 PM 90.0 °F 97.9 °F 73.0 °F 57% 29.86 in 10.0 mi WSW 5.8 mph - N/A   Clear
1:51 PM 89.1 °F 100.2 °F 75.9 °F 65% 29.86 in 10.0 mi SW 6.9 mph - N/A   Clear
2:51 PM 89.1 °F 101.4 °F 77.0 °F 67% 29.84 in 10.0 mi SW 10.4 mph - N/A   Clear
3:51 PM 89.1 °F 101.4 °F 77.0 °F 67% 29.84 in 10.0 mi SW 9.2 mph - N/A   Clear
4:51 PM 88.0 °F 101.3 °F 78.1 °F 72% 29.83 in 10.0 mi SSW 10.4 mph - N/A   Clear
5:51 PM 87.1 °F 98.8 °F 77.0 °F 72% 29.83 in 10.0 mi SSW 11.5 mph - N/A   Clear
6:51 PM 84.9 °F 95.3 °F 77.0 °F 77% 29.84 in 10.0 mi SW 9.2 mph - N/A   Clear
7:51 PM 82.9 °F 91.8 °F 77.0 °F 82% 29.85 in 9.0 mi SW 9.2 mph - N/A   Clear
8:51 PM 82.9 °F 93.8 °F 79.0 °F 88% 29.84 in 8.0 mi SW 10.4 mph - N/A   Clear
9:51 PM 82.0 °F 91.6 °F 79.0 °F 90% 29.87 in 8.0 mi WSW 8.1 mph - N/A   Clear
10:51 PM 82.0 °F 91.0 °F 78.1 °F 88% 29.88 in 9.0 mi WSW 9.2 mph - N/A   Clear
11:51 PM 82.0 °F 91.6 °F 79.0 °F 90% 29.87 in 6.0 mi WSW 9.2 mph - N/A   Clear